START_TIME,STEP,MOV.,AL01,t_acc.,AL02,t_acc.,E37,t_acc.,H21,t_acc.
1981-08-30 15:00:34.830 ,1,0,0.,24.0,0.,24.0,2.,24.0,0.,24.0
1981-08-30 15:00:58.830 ,0,1,0.,24.0,0.,24.0,1.,24.0,0.,24.0
1981-08-30 15:01:22.830 ,0,0,1.,24.0,0.,24.0,0.,24.0,0.,24.0
1981-08-30 15:01:46.830 ,0,1,0.,24.0,0.,24.0,0.,24.0,0.,24.0
1981-08-30 15:02:10.830 ,0,0,0.,24.0,0.,24.0,0.,24.0,0.,24.0
1981-08-30 15:02:34.820 ,1,1,0.,24.0,0.,24.0,1.,24.0,0.,24.0
1981-08-30 15:02:58.820 ,1,0,0.,24.0,0.,24.0,0.,24.0,0.,24.0
1981-08-30 15:03:22.820 ,2,1,0.,24.0,0.,24.0,0.,24.0,0.,24.0
1981-08-30 15:03:46.820 ,2,0,0.,24.0,0.,24.0,0.,24.0,0.,24.0
1981-08-30 15:04:10.820 ,3,1,0.,24.0,0.,24.0,0.,24.0,0.,24.0
1981-08-30 15:04:34.830 ,4,1,0.,24.0,0.,24.0,0.,24.0,0.,24.0
1981-08-30 15:04:58.830 ,5,1,0.,24.0,0.,24.0,0.,24.0,0.,24.0
1981-08-30 15:05:22.830 ,6,1,1.,24.0,0.,24.0,1.,24.0,0.,24.0
1981-08-30 15:05:46.830 ,7,1,8.,24.0,0.,24.0,0.,24.0,0.,24.0
1981-08-30 15:06:10.830 ,7,1,33.,24.0,0.,24.0,0.,24.0,0.,24.0
1981-08-30 15:06:34.820 ,6,1,21.,24.0,0.,24.0,0.,24.0,0.,24.0
1981-08-30 15:06:58.820 ,5,1,0.,24.0,0.,24.0,0.,24.0,0.,24.0
1981-08-30 15:07:22.820 ,4,1,0.,24.0,0.,24.0,0.,24.0,0.,24.0
1981-08-30 15:07:46.820 ,3,1,0.,24.0,0.,24.0,0.,24.0,0.,24.0
1981-08-30 15:08:10.820 ,2,1,0.,24.0,0.,24.0,0.,24.0,0.,24.0
1981-08-30 15:08:34.820 ,1,1,0.,24.0,0.,24.0,0.,24.0,0.,24.0
1981-08-30 15:08:58.820 ,0,1,0.,24.0,0.,24.0,0.,24.0,0.,24.0
1981-08-30 15:09:22.820 ,0,1,0.,24.0,0.,24.0,1.,24.0,0.,24.0
1981-08-30 15:09:46.820 ,1,1,0.,24.0,0.,24.0,1.,24.0,0.,24.0
1981-08-30 15:10:10.820 ,2,1,0.,24.0,0.,24.0,0.,24.0,0.,24.0
1981-08-30 15:10:34.820 ,3,1,0.,24.0,0.,24.0,0.,24.0,0.,24.0
1981-08-30 15:10:58.820 ,3,0,1.,24.0,0.,24.0,0.,24.0,0.,24.0
1981-08-30 15:11:22.820 ,4,1,0.,24.0,0.,24.0,0.,24.0,0.,24.0
1981-08-30 15:11:46.820 ,4,0,0.,24.0,0.,24.0,0.,24.0,0.,24.0
1981-08-30 15:12:10.820 ,5,1,0.,24.0,0.,24.0,0.,24.0,0.,24.0
1981-08-30 15:12:34.820 ,5,0,0.,24.0,0.,24.0,0.,24.0,0.,24.0
1981-08-30 15:12:58.820 ,6,1,0.,24.0,0.,24.0,1.,24.0,0.,24.0
1981-08-30 15:13:22.820 ,6,0,0.,24.0,0.,24.0,1.,24.0,0.,24.0
1981-08-30 15:13:46.820 ,7,1,6.,24.0,0.,24.0,0.,24.0,0.,24.0
1981-08-30 15:14:10.820 ,7,0,25.,24.0,0.,24.0,0.,24.0,0.,24.0
1981-08-30 15:14:34.820 ,7,1,31.,24.0,0.,24.0,0.,24.0,0.,24.0
1981-08-30 15:14:58.820 ,7,0,29.,24.0,0.,24.0,1.,24.0,0.,24.0
1981-08-30 15:15:22.820 ,6,1,16.,24.0,0.,24.0,2.,24.0,0.,24.0
1981-08-30 15:15:46.820 ,6,0,1.,24.0,0.,24.0,0.,24.0,0.,24.0
1981-08-30 15:16:10.820 ,5,1,0.,24.0,0.,24.0,0.,24.0,0.,24.0
1981-08-30 15:16:34.820 ,5,0,0.,24.0,0.,24.0,0.,24.0,0.,24.0
1981-08-30 15:16:58.820 ,4,1,0.,24.0,0.,24.0,1.,24.0,0.,24.0
1981-08-30 15:17:22.820 ,4,0,0.,24.0,0.,24.0,1.,24.0,0.,24.0
1981-08-30 15:17:46.820 ,3,1,0.,24.0,0.,24.0,0.,24.0,0.,24.0
1981-08-30 15:18:10.820 ,3,0,0.,24.0,0.,24.0,0.,24.0,0.,24.0
1981-08-30 15:18:34.820 ,2,1,0.,24.0,0.,24.0,0.,24.0,0.,24.0
1981-08-30 15:18:58.820 ,2,0,0.,24.0,0.,24.0,1.,24.0,0.,24.0
1981-08-30 15:19:22.820 ,1,1,0.,24.0,0.,24.0,1.,24.0,0.,24.0
1981-08-30 15:19:46.820 ,1,0,0.,24.0,0.,24.0,0.,24.0,0.,24.0
1981-08-30 15:20:10.820 ,0,1,0.,24.0,0.,24.0,0.,24.0,0.,24.0
1981-08-30 15:20:34.820 ,0,0,0.,24.0,0.,24.0,0.,24.0,0.,24.0
1981-08-30 15:20:58.820 ,0,1,0.,24.0,0.,24.0,0.,24.0,0.,24.0
1981-08-30 15:21:22.820 ,0,0,0.,24.0,0.,24.0,0.,24.0,0.,24.0
1981-08-30 15:21:46.820 ,1,1,0.,24.0,0.,24.0,0.,24.0,0.,24.0
1981-08-30 15:22:10.820 ,1,0,0.,24.0,0.,24.0,0.,24.0,0.,24.0
1981-08-30 15:22:34.820 ,2,1,0.,24.0,0.,24.0,1.,24.0,0.,24.0
1981-08-30 15:22:58.820 ,2,0,0.,24.0,0.,24.0,1.,24.0,0.,24.0
1981-08-30 15:23:22.820 ,3,1,0.,24.0,0.,24.0,0.,24.0,0.,24.0
1981-08-30 15:23:46.820 ,4,1,0.,24.0,0.,24.0,0.,24.0,0.,24.0
1981-08-30 15:24:10.820 ,5,1,0.,24.0,0.,24.0,0.,24.0,0.,24.0
1981-08-30 15:24:34.820 ,6,1,0.,24.0,0.,24.0,0.,24.0,0.,24.0
1981-08-30 15:24:58.820 ,7,1,7.,24.0,0.,24.0,0.,24.0,0.,24.0
1981-08-30 15:25:22.820 ,7,1,30.,24.0,1.,24.0,1.,24.0,0.,24.0
1981-08-30 15:25:46.820 ,6,1,22.,24.0,0.,24.0,0.,24.0,0.,24.0
1981-08-30 15:26:10.820 ,5,1,1.,24.0,0.,24.0,0.,24.0,0.,24.0
1981-08-30 15:26:34.820 ,4,1,0.,24.0,0.,24.0,0.,24.0,0.,24.0
1981-08-30 15:26:58.820 ,3,1,0.,24.0,0.,24.0,1.,24.0,0.,24.0
1981-08-30 15:27:22.820 ,2,1,0.,24.0,0.,24.0,1.,24.0,0.,24.0
1981-08-30 15:27:46.820 ,1,1,0.,24.0,0.,24.0,2.,24.0,0.,24.0
1981-08-30 15:28:10.820 ,0,1,0.,24.0,0.,24.0,0.,24.0,0.,24.0
1981-08-30 15:28:34.820 ,0,1,0.,24.0,0.,24.0,1.,24.0,0.,24.0
1981-08-30 15:28:58.820 ,1,1,0.,24.0,0.,24.0,1.,24.0,0.,24.0
1981-08-30 15:29:22.820 ,2,1,0.,24.0,1.,24.0,0.,24.0,0.,24.0
1981-08-30 15:29:46.820 ,3,1,0.,24.0,0.,24.0,0.,24.0,0.,24.0
1981-08-30 15:30:10.820 ,3,0,0.,24.0,0.,24.0,0.,24.0,0.,24.0
1981-08-30 15:30:34.820 ,4,1,0.,24.0,0.,24.0,2.,24.0,0.,24.0
1981-08-30 15:30:58.820 ,4,0,0.,24.0,0.,24.0,0.,24.0,0.,24.0
1981-08-30 15:31:22.820 ,5,1,0.,24.0,0.,24.0,0.,24.0,0.,24.0
1981-08-30 15:31:46.820 ,5,0,0.,24.0,0.,24.0,0.,24.0,0.,24.0
1981-08-30 15:32:10.820 ,6,1,0.,24.0,0.,24.0,0.,24.0,0.,24.0
1981-08-30 15:32:34.820 ,6,0,0.,24.0,0.,24.0,0.,24.0,0.,24.0
1981-08-30 15:32:58.820 ,7,1,1.,24.0,0.,24.0,0.,24.0,0.,24.0
1981-08-30 15:33:22.820 ,7,0,28.,24.0,0.,24.0,0.,24.0,0.,24.0
1981-08-30 15:33:46.820 ,7,1,40.,24.0,0.,24.0,0.,24.0,0.,24.0
1981-08-30 15:34:10.820 ,7,0,39.,24.0,0.,24.0,0.,24.0,0.,24.0
1981-08-30 15:34:34.820 ,6,1,24.,24.0,0.,24.0,1.,24.0,0.,24.0
1981-08-30 15:34:58.820 ,6,0,0.,24.0,0.,24.0,0.,24.0,0.,24.0
1981-08-30 15:35:22.820 ,5,1,0.,24.0,0.,24.0,0.,24.0,0.,24.0
1981-08-30 15:35:46.820 ,5,0,0.,24.0,0.,24.0,0.,24.0,0.,24.0
1981-08-30 15:36:10.820 ,4,1,0.,24.0,0.,24.0,0.,24.0,0.,24.0
1981-08-30 15:36:34.820 ,4,0,0.,24.0,0.,24.0,0.,24.0,0.,24.0
1981-08-30 15:36:58.820 ,3,1,0.,24.0,0.,24.0,0.,24.0,0.,24.0
1981-08-30 15:37:22.820 ,3,0,0.,24.0,0.,24.0,1.,24.0,0.,24.0
1981-08-30 15:37:46.820 ,2,1,0.,24.0,0.,24.0,0.,24.0,0.,24.0
1981-08-30 15:38:10.820 ,2,0,0.,24.0,0.,24.0,0.,24.0,0.,24.0
1981-08-30 15:38:34.820 ,1,1,0.,24.0,0.,24.0,1.,24.0,0.,24.0
1981-08-30 15:38:58.820 ,1,0,0.,24.0,0.,24.0,0.,24.0,0.,24.0
1981-08-30 15:39:22.820 ,0,1,0.,24.0,0.,24.0,0.,24.0,0.,24.0
1981-08-30 15:39:46.820 ,0,0,0.,24.0,0.,24.0,0.,24.0,0.,24.0
1981-08-30 15:40:10.820 ,0,1,0.,24.0,0.,24.0,0.,24.0,0.,24.0
1981-08-30 15:40:34.820 ,0,0,0.,24.0,0.,24.0,1.,24.0,0.,24.0
1981-08-30 15:40:58.820 ,1,1,1.,24.0,0.,24.0,1.,24.0,0.,24.0
1981-08-30 15:41:22.820 ,1,0,0.,24.0,0.,24.0,0.,24.0,0.,24.0
1981-08-30 15:41:46.820 ,2,1,0.,24.0,0.,24.0,0.,24.0,0.,24.0
1981-08-30 15:42:10.820 ,2,0,0.,24.0,0.,24.0,0.,24.0,0.,24.0
1981-08-30 15:42:34.820 ,3,1,0.,24.0,0.,24.0,0.,24.0,0.,24.0
1981-08-30 15:42:58.820 ,4,1,0.,24.0,0.,24.0,0.,24.0,0.,24.0
1981-08-30 15:43:22.820 ,5,1,0.,24.0,0.,24.0,1.,24.0,0.,24.0
1981-08-30 15:43:46.820 ,6,1,0.,24.0,0.,24.0,0.,24.0,0.,24.0
1981-08-30 15:44:10.820 ,7,1,5.,24.0,0.,24.0,0.,24.0,0.,24.0
1981-08-30 15:44:34.820 ,7,1,33.,24.0,0.,24.0,0.,24.0,0.,24.0
1981-08-30 15:44:58.820 ,6,1,30.,24.0,0.,24.0,0.,24.0,0.,24.0
1981-08-30 15:45:22.820 ,5,1,0.,24.0,0.,24.0,0.,24.0,0.,24.0
1981-08-30 15:45:46.820 ,4,1,0.,24.0,0.,24.0,2.,24.0,0.,24.0
1981-08-30 15:46:10.820 ,3,1,0.,24.0,0.,24.0,0.,24.0,0.,24.0
1981-08-30 15:46:34.820 ,2,1,0.,24.0,1.,24.0,0.,24.0,0.,24.0
1981-08-30 15:46:58.820 ,1,1,0.,24.0,0.,24.0,0.,24.0,0.,24.0
1981-08-30 15:47:22.820 ,0,1,0.,24.0,0.,24.0,0.,24.0,0.,24.0
1981-08-30 15:47:46.820 ,0,1,0.,24.0,0.,24.0,1.,24.0,0.,24.0
1981-08-30 15:48:10.820 ,1,1,0.,24.0,0.,24.0,1.,24.0,0.,24.0
1981-08-30 15:48:34.820 ,2,1,1.,24.0,0.,24.0,0.,24.0,0.,24.0
1981-08-30 15:48:58.820 ,3,1,0.,24.0,0.,24.0,0.,24.0,0.,24.0
1981-08-30 15:49:22.820 ,3,0,0.,24.0,0.,24.0,0.,24.0,0.,24.0
1981-08-30 15:49:46.820 ,4,1,0.,24.0,0.,24.0,0.,24.0,0.,24.0
1981-08-30 15:50:10.820 ,4,0,0.,24.0,0.,24.0,1.,24.0,0.,24.0
1981-08-30 15:50:34.820 ,5,1,0.,24.0,0.,24.0,1.,24.0,0.,24.0
1981-08-30 15:50:58.820 ,5,0,0.,24.0,0.,24.0,1.,24.0,0.,24.0
1981-08-30 15:51:22.820 ,6,1,0.,24.0,0.,24.0,0.,24.0,0.,24.0
1981-08-30 15:51:46.820 ,6,0,0.,24.0,0.,24.0,1.,24.0,0.,24.0
1981-08-30 15:52:10.820 ,7,1,12.,24.0,0.,24.0,0.,24.0,0.,24.0
1981-08-30 15:52:34.820 ,7,0,33.,24.0,0.,24.0,0.,24.0,0.,24.0
1981-08-30 15:52:58.820 ,7,1,31.,24.0,0.,24.0,0.,24.0,0.,24.0
1981-08-30 15:53:22.820 ,7,0,39.,24.0,0.,24.0,1.,24.0,0.,24.0
1981-08-30 15:53:46.820 ,6,1,26.,24.0,0.,24.0,0.,24.0,0.,24.0
1981-08-30 15:54:10.820 ,6,0,0.,24.0,0.,24.0,2.,24.0,0.,24.0
1981-08-30 15:54:34.820 ,5,1,0.,24.0,0.,24.0,1.,24.0,0.,24.0
1981-08-30 15:54:58.820 ,5,0,0.,24.0,0.,24.0,0.,24.0,0.,24.0
1981-08-30 15:55:22.820 ,4,1,0.,24.0,0.,24.0,0.,24.0,0.,24.0
1981-08-30 15:55:46.820 ,0,0,0.,24.0,0.,24.0,0.,24.0,0.,24.0
1981-08-30 15:56:13.220 ,3,1,0.,24.0,0.,24.0,1.,24.0,0.,24.0
1981-08-30 15:56:34.820 ,3,0,0.,24.0,0.,24.0,1.,24.0,0.,24.0
1981-08-30 15:56:58.820 ,2,1,1.,24.0,0.,24.0,0.,24.0,0.,24.0
1981-08-30 15:57:22.820 ,2,0,0.,24.0,0.,24.0,0.,24.0,0.,24.0
1981-08-30 15:57:46.820 ,1,1,0.,24.0,0.,24.0,0.,24.0,0.,24.0
1981-08-30 15:58:10.820 ,1,0,0.,24.0,0.,24.0,0.,24.0,0.,24.0
1981-08-30 15:58:34.820 ,0,1,0.,24.0,0.,24.0,0.,24.0,0.,24.0
1981-08-30 15:58:58.820 ,0,0,0.,24.0,0.,24.0,0.,24.0,0.,24.0
1981-08-30 15:59:22.820 ,0,1,0.,24.0,0.,24.0,0.,24.0,0.,24.0
1981-08-30 15:59:46.820 ,0,0,1.,24.0,0.,24.0,0.,24.0,0.,24.0
1981-08-30 16:00:10.820 ,1,1,0.,24.0,0.,24.0,0.,24.0,0.,24.0
1981-08-30 16:00:34.820 ,1,0,0.,24.0,0.,24.0,0.,24.0,0.,24.0
1981-08-30 16:00:58.820 ,2,1,0.,24.0,0.,24.0,0.,24.0,0.,24.0
1981-08-30 16:01:22.820 ,2,0,0.,24.0,0.,24.0,0.,24.0,0.,24.0
1981-08-30 16:01:46.820 ,3,1,0.,24.0,0.,24.0,1.,24.0,0.,24.0
1981-08-30 16:02:10.820 ,4,1,0.,24.0,0.,24.0,0.,24.0,0.,24.0
1981-08-30 16:02:34.820 ,5,1,0.,24.0,0.,24.0,0.,24.0,0.,24.0
1981-08-30 16:02:58.820 ,6,1,0.,24.0,0.,24.0,0.,24.0,0.,24.0
1981-08-30 16:03:22.820 ,7,1,7.,24.0,0.,24.0,0.,24.0,0.,24.0
1981-08-30 16:03:46.820 ,7,1,35.,24.0,0.,24.0,0.,24.0,0.,24.0
1981-08-30 16:04:10.820 ,6,1,26.,24.0,0.,24.0,0.,24.0,0.,24.0
1981-08-30 16:04:34.820 ,5,1,0.,24.0,0.,24.0,0.,24.0,0.,24.0
1981-08-30 16:04:58.820 ,4,1,0.,24.0,0.,24.0,0.,24.0,0.,24.0
1981-08-30 16:05:22.820 ,3,1,0.,24.0,0.,24.0,0.,24.0,0.,24.0
1981-08-30 16:05:46.820 ,2,1,0.,24.0,0.,24.0,1.,24.0,0.,24.0
1981-08-30 16:06:10.820 ,1,1,0.,24.0,0.,24.0,0.,24.0,0.,24.0
1981-08-30 16:06:34.820 ,0,1,0.,24.0,0.,24.0,0.,24.0,0.,24.0
1981-08-30 16:06:58.820 ,0,1,0.,24.0,0.,24.0,0.,24.0,0.,24.0
1981-08-30 16:07:22.820 ,1,1,0.,24.0,0.,24.0,0.,24.0,0.,24.0
1981-08-30 16:07:46.820 ,2,1,0.,24.0,0.,24.0,0.,24.0,0.,24.0
1981-08-30 16:08:10.820 ,3,1,1.,24.0,0.,24.0,0.,24.0,0.,24.0
1981-08-30 16:08:34.820 ,3,0,0.,24.0,0.,24.0,0.,24.0,0.,24.0
1981-08-30 16:08:58.820 ,4,1,0.,24.0,0.,24.0,0.,24.0,0.,24.0
1981-08-30 16:09:22.820 ,4,0,0.,24.0,0.,24.0,0.,24.0,0.,24.0
1981-08-30 16:09:46.820 ,5,1,0.,24.0,0.,24.0,0.,24.0,0.,24.0
1981-08-30 16:10:10.820 ,5,0,0.,24.0,0.,24.0,0.,24.0,0.,24.0
1981-08-30 16:10:34.820 ,6,1,0.,24.0,0.,24.0,0.,24.0,0.,24.0
1981-08-30 16:10:58.820 ,6,0,0.,24.0,0.,24.0,0.,24.0,0.,24.0
1981-08-30 16:11:22.820 ,7,1,9.,24.0,0.,24.0,0.,24.0,0.,24.0
1981-08-30 16:11:46.820 ,7,0,35.,24.0,0.,24.0,0.,24.0,0.,24.0
1981-08-30 16:12:10.820 ,7,1,36.,24.0,0.,24.0,0.,24.0,0.,24.0
1981-08-30 16:12:34.820 ,7,0,35.,24.0,0.,24.0,0.,24.0,0.,24.0
1981-08-30 16:12:58.820 ,6,1,25.,24.0,0.,24.0,0.,24.0,0.,24.0
1981-08-30 16:13:22.820 ,6,0,0.,24.0,0.,24.0,0.,24.0,0.,24.0
1981-08-30 16:13:46.820 ,5,1,0.,24.0,0.,24.0,0.,24.0,0.,24.0
1981-08-30 16:14:10.820 ,5,0,0.,24.0,0.,24.0,0.,24.0,0.,24.0
1981-08-30 16:14:34.820 ,4,1,0.,24.0,0.,24.0,0.,24.0,0.,24.0
1981-08-30 16:14:58.820 ,4,0,0.,24.0,0.,24.0,0.,24.0,0.,24.0
1981-08-30 16:15:22.820 ,3,1,1.,24.0,0.,24.0,0.,24.0,0.,24.0
1981-08-30 16:15:46.820 ,3,0,0.,24.0,0.,24.0,0.,24.0,0.,24.0
1981-08-30 16:16:10.820 ,2,1,0.,24.0,0.,24.0,0.,24.0,0.,24.0
1981-08-30 16:16:34.820 ,2,0,0.,24.0,0.,24.0,0.,24.0,0.,24.0
1981-08-30 16:16:58.820 ,1,1,0.,24.0,0.,24.0,0.,24.0,0.,24.0
1981-08-30 16:17:22.820 ,1,0,0.,24.0,0.,24.0,0.,24.0,0.,24.0
1981-08-30 16:17:46.820 ,0,1,0.,24.0,0.,24.0,0.,24.0,0.,24.0
1981-08-30 16:18:10.820 ,0,0,0.,24.0,0.,24.0,1.,24.0,0.,24.0
1981-08-30 16:18:34.820 ,0,1,0.,24.0,0.,24.0,0.,24.0,0.,24.0
1981-08-30 16:18:58.820 ,0,0,0.,24.0,0.,24.0,0.,24.0,0.,24.0
1981-08-30 16:19:22.820 ,1,1,0.,24.0,0.,24.0,1.,24.0,0.,24.0
1981-08-30 16:19:46.820 ,1,0,0.,24.0,0.,24.0,0.,24.0,0.,24.0
1981-08-30 16:20:10.820 ,2,1,0.,24.0,0.,24.0,0.,24.0,0.,24.0
1981-08-30 16:20:34.820 ,2,0,0.,24.0,0.,24.0,0.,24.0,0.,24.0
1981-08-30 16:20:58.820 ,3,1,0.,24.0,0.,24.0,0.,24.0,0.,24.0
1981-08-30 16:21:22.820 ,4,1,0.,24.0,0.,24.0,1.,24.0,0.,24.0
1981-08-30 16:21:46.820 ,5,1,0.,24.0,0.,24.0,0.,24.0,0.,24.0
1981-08-30 16:22:10.820 ,6,1,0.,24.0,0.,24.0,1.,24.0,0.,24.0
1981-08-30 16:22:34.820 ,7,1,8.,24.0,0.,24.0,0.,24.0,0.,24.0
1981-08-30 16:22:58.820 ,7,1,34.,24.0,0.,24.0,2.,24.0,0.,24.0
1981-08-30 16:23:22.820 ,6,1,25.,24.0,0.,24.0,1.,24.0,0.,24.0
1981-08-30 16:23:46.820 ,5,1,0.,24.0,0.,24.0,1.,24.0,0.,24.0
1981-08-30 16:24:10.820 ,4,1,0.,24.0,0.,24.0,0.,24.0,0.,24.0
1981-08-30 16:24:34.820 ,3,1,0.,24.0,0.,24.0,0.,24.0,0.,24.0
1981-08-30 16:24:58.820 ,2,1,0.,24.0,0.,24.0,0.,24.0,0.,24.0
1981-08-30 16:25:22.820 ,1,1,0.,24.0,0.,24.0,0.,24.0,0.,24.0
1981-08-30 16:25:46.820 ,0,1,0.,24.0,0.,24.0,0.,24.0,0.,24.0
1981-08-30 16:26:10.820 ,0,1,0.,24.0,0.,24.0,0.,24.0,0.,24.0
1981-08-30 16:26:34.820 ,1,1,0.,24.0,0.,24.0,0.,24.0,0.,24.0
1981-08-30 16:26:58.820 ,2,1,1.,24.0,0.,24.0,0.,24.0,0.,24.0
1981-08-30 16:27:22.820 ,3,1,0.,24.0,0.,24.0,1.,24.0,0.,24.0
1981-08-30 16:27:46.820 ,3,0,0.,24.0,0.,24.0,0.,24.0,0.,24.0
1981-08-30 16:28:10.820 ,4,1,0.,24.0,0.,24.0,0.,24.0,0.,24.0
1981-08-30 16:28:34.820 ,4,0,1.,24.0,0.,24.0,0.,24.0,0.,24.0
1981-08-30 16:28:58.820 ,5,1,0.,24.0,0.,24.0,0.,24.0,0.,24.0
1981-08-30 16:29:22.820 ,5,0,0.,24.0,0.,24.0,0.,24.0,0.,24.0
1981-08-30 16:29:46.820 ,6,1,0.,24.0,0.,24.0,2.,24.0,0.,24.0
1981-08-30 16:30:10.820 ,6,0,0.,24.0,0.,24.0,1.,24.0,0.,24.0
1981-08-30 16:30:34.820 ,7,1,11.,24.0,0.,24.0,0.,24.0,0.,24.0
1981-08-30 16:30:58.820 ,7,0,26.,24.0,1.,24.0,0.,24.0,0.,24.0
1981-08-30 16:31:22.820 ,7,1,49.,24.0,0.,24.0,0.,24.0,0.,24.0
1981-08-30 16:31:46.820 ,7,0,29.,24.0,0.,24.0,0.,24.0,0.,24.0
1981-08-30 16:32:10.820 ,6,1,30.,24.0,0.,24.0,0.,24.0,0.,24.0
1981-08-30 16:32:34.820 ,6,0,0.,24.0,0.,24.0,1.,24.0,0.,24.0
1981-08-30 16:32:58.820 ,5,1,0.,24.0,0.,24.0,0.,24.0,0.,24.0
1981-08-30 16:33:22.820 ,5,0,0.,24.0,0.,24.0,0.,24.0,0.,24.0
1981-08-30 16:33:46.820 ,4,1,0.,24.0,0.,24.0,0.,24.0,0.,24.0
1981-08-30 16:34:10.820 ,4,0,0.,24.0,0.,24.0,1.,24.0,0.,24.0
1981-08-30 16:34:34.820 ,3,1,0.,24.0,0.,24.0,1.,24.0,0.,24.0
1981-08-30 16:34:58.820 ,3,0,0.,24.0,0.,24.0,0.,24.0,0.,24.0
1981-08-30 16:35:22.820 ,2,1,0.,24.0,0.,24.0,0.,24.0,0.,24.0
1981-08-30 16:35:46.820 ,2,0,0.,24.0,1.,24.0,0.,24.0,0.,24.0
1981-08-30 16:36:10.820 ,1,1,0.,24.0,0.,24.0,0.,24.0,0.,24.0
1981-08-30 16:36:34.820 ,1,0,0.,24.0,0.,24.0,1.,24.0,0.,24.0
1981-08-30 16:36:58.820 ,0,1,0.,24.0,0.,24.0,0.,24.0,0.,24.0
1981-08-30 16:37:22.820 ,0,0,0.,24.0,0.,24.0,0.,24.0,0.,24.0
1981-08-30 16:37:46.820 ,0,1,0.,24.0,0.,24.0,1.,24.0,0.,24.0
1981-08-30 16:38:10.820 ,0,0,0.,24.0,0.,24.0,0.,24.0,0.,24.0
1981-08-30 16:38:34.820 ,1,1,0.,24.0,0.,24.0,0.,24.0,0.,24.0
1981-08-30 16:38:58.820 ,1,0,0.,24.0,0.,24.0,0.,24.0,0.,24.0
1981-08-30 16:39:22.820 ,2,1,0.,24.0,0.,24.0,0.,24.0,0.,24.0
1981-08-30 16:39:46.820 ,2,0,0.,24.0,1.,24.0,0.,24.0,0.,24.0
1981-08-30 16:40:10.820 ,3,1,0.,24.0,0.,24.0,0.,24.0,0.,24.0
1981-08-30 16:40:34.820 ,4,1,0.,24.0,0.,24.0,0.,24.0,0.,24.0
1981-08-30 16:40:58.820 ,5,1,0.,24.0,0.,24.0,0.,24.0,0.,24.0
1981-08-30 16:41:22.820 ,6,1,0.,24.0,0.,24.0,0.,24.0,0.,24.0
1981-08-30 16:41:46.820 ,7,1,4.,24.0,0.,24.0,0.,24.0,0.,24.0
1981-08-30 16:42:10.820 ,0,0,38.,24.0,0.,24.0,0.,24.0,0.,24.0
1981-08-30 16:42:34.820 ,6,1,21.,24.0,0.,24.0,0.,24.0,0.,24.0
1981-08-30 16:42:58.820 ,5,1,0.,24.0,0.,24.0,0.,24.0,0.,24.0
1981-08-30 16:43:22.820 ,4,1,0.,24.0,0.,24.0,1.,24.0,0.,24.0
1981-08-30 16:43:46.820 ,3,1,0.,24.0,0.,24.0,0.,24.0,0.,24.0
1981-08-30 16:44:10.820 ,2,1,0.,24.0,0.,24.0,0.,24.0,0.,24.0
1981-08-30 16:44:34.820 ,1,1,0.,24.0,0.,24.0,0.,24.0,0.,24.0
1981-08-30 16:44:58.820 ,0,1,0.,24.0,0.,24.0,0.,24.0,0.,24.0
1981-08-30 16:45:22.820 ,0,1,0.,24.0,0.,24.0,0.,24.0,0.,24.0
1981-08-30 16:45:46.820 ,1,1,0.,24.0,0.,24.0,1.,24.0,0.,24.0
1981-08-30 16:46:10.820 ,2,1,0.,24.0,0.,24.0,0.,24.0,0.,24.0
1981-08-30 16:46:34.820 ,3,1,0.,24.0,0.,24.0,0.,24.0,0.,24.0
1981-08-30 16:46:58.820 ,3,0,0.,24.0,1.,24.0,0.,24.0,0.,24.0
1981-08-30 16:47:22.820 ,4,1,0.,24.0,0.,24.0,1.,24.0,0.,24.0
1981-08-30 16:47:46.820 ,4,0,0.,24.0,0.,24.0,0.,24.0,0.,24.0
1981-08-30 16:48:10.820 ,0,0,,0,,0,,0,,0
1981-08-30 16:48:34.820 ,0,0,,0,,0,,0,,0
1981-08-30 16:51:25.220 ,0,0,27.,24.0,0.,24.0,1.,24.0,0.,24.0
1981-08-30 16:51:46.820 ,0,0,0.,24.0,0.,24.0,1.,24.0,0.,24.0
1981-08-30 16:52:10.820 ,5,1,0.,24.0,0.,24.0,0.,24.0,0.,24.0
1981-08-30 16:52:34.820 ,5,0,0.,24.0,0.,24.0,0.,24.0,0.,24.0
1981-08-30 16:52:58.820 ,4,1,0.,24.0,0.,24.0,0.,24.0,0.,24.0
1981-08-30 16:53:22.820 ,4,0,0.,24.0,0.,24.0,1.,24.0,0.,24.0
1981-08-30 16:53:46.820 ,3,1,0.,24.0,0.,24.0,1.,24.0,0.,24.0
1981-08-30 16:54:10.820 ,3,0,0.,24.0,0.,24.0,0.,24.0,0.,24.0
1981-08-30 16:54:34.820 ,2,1,0.,24.0,0.,24.0,0.,24.0,0.,24.0
1981-08-30 16:54:58.820 ,2,0,0.,24.0,1.,24.0,0.,24.0,0.,24.0
1981-08-30 16:55:22.820 ,0,0,,0,,0,,0,,0
1981-08-30 16:55:46.820 ,0,0,,0,,0,,0,,0
1981-08-30 16:55:46.820 ,1,0,0.,24.0,0.,24.0,0.,24.0,0.,24.0
1981-08-30 16:56:10.820 ,0,1,0.,24.0,0.,24.0,1.,24.0,0.,24.0
1981-08-30 16:56:34.820 ,0,0,0.,24.0,0.,24.0,1.,24.0,0.,24.0
1981-08-30 16:56:58.820 ,0,1,0.,24.0,0.,24.0,0.,24.0,0.,24.0
1981-08-30 16:57:22.820 ,0,0,0.,24.0,0.,24.0,1.,24.0,0.,24.0
1981-08-30 16:57:46.820 ,1,1,0.,24.0,0.,24.0,0.,24.0,0.,24.0
1981-08-30 16:58:10.820 ,1,0,0.,24.0,0.,24.0,4.,24.0,0.,24.0
1981-08-30 16:58:34.820 ,2,1,0.,24.0,0.,24.0,0.,24.0,0.,24.0
1981-08-30 16:58:58.820 ,2,0,0.,24.0,0.,24.0,0.,24.0,0.,24.0
1981-08-30 16:59:22.820 ,3,1,0.,24.0,0.,24.0,0.,24.0,0.,24.0
1981-08-30 16:59:46.820 ,4,1,0.,24.0,0.,24.0,1.,24.0,0.,24.0
1981-08-30 17:00:10.820 ,5,1,0.,24.0,0.,24.0,0.,24.0,0.,24.0
1981-08-30 17:00:34.820 ,6,1,0.,24.0,0.,24.0,0.,24.0,0.,24.0
1981-08-30 17:00:58.820 ,7,1,5.,24.0,0.,24.0,0.,24.0,0.,24.0
1981-08-30 17:01:22.820 ,7,1,20.,24.0,1.,24.0,0.,24.0,0.,24.0
1981-08-30 17:01:46.820 ,6,1,21.,24.0,0.,24.0,0.,24.0,0.,24.0
1981-08-30 17:02:10.820 ,5,1,0.,24.0,0.,24.0,0.,24.0,0.,24.0
1981-08-30 17:02:34.820 ,4,1,0.,24.0,0.,24.0,1.,24.0,0.,24.0
1981-08-30 17:02:58.820 ,3,1,0.,24.0,0.,24.0,1.,24.0,0.,24.0
1981-08-30 17:03:22.820 ,2,1,0.,24.0,0.,24.0,0.,24.0,0.,24.0
1981-08-30 17:03:46.820 ,0,0,0.,24.0,0.,24.0,0.,24.0,0.,24.0
1981-08-30 17:04:24.020 ,0,0,,0,,0,,0,,0
1981-08-30 17:04:34.820 ,0,1,0.,24.0,0.,24.0,0.,24.0,0.,24.0
1981-08-30 17:04:58.820 ,1,1,0.,24.0,0.,24.0,0.,24.0,0.,24.0
1981-08-30 17:05:22.820 ,2,1,0.,24.0,0.,24.0,0.,24.0,0.,24.0
1981-08-30 17:05:46.820 ,3,1,0.,24.0,0.,24.0,0.,24.0,0.,24.0
1981-08-30 17:06:10.820 ,3,0,0.,24.0,0.,24.0,1.,24.0,0.,24.0
1981-08-30 17:06:34.820 ,4,1,0.,24.0,0.,24.0,0.,24.0,0.,24.0
1981-08-30 17:06:58.820 ,4,0,0.,24.0,0.,24.0,0.,24.0,0.,24.0
1981-08-30 17:07:22.820 ,5,1,0.,24.0,0.,24.0,0.,24.0,0.,24.0
1981-08-30 17:07:46.820 ,5,0,0.,24.0,0.,24.0,0.,24.0,0.,24.0
1981-08-30 17:08:10.820 ,6,1,0.,24.0,0.,24.0,1.,24.0,0.,24.0
1981-08-30 17:08:34.820 ,6,0,0.,24.0,0.,24.0,1.,24.0,0.,24.0
1981-08-30 17:08:58.820 ,7,1,10.,24.0,0.,24.0,0.,24.0,0.,24.0
1981-08-30 17:09:22.820 ,7,0,30.,24.0,0.,24.0,0.,24.0,0.,24.0
1981-08-30 17:09:46.820 ,7,1,32.,24.0,0.,24.0,1.,24.0,0.,24.0
1981-08-30 17:10:10.820 ,7,0,29.,24.0,0.,24.0,0.,24.0,0.,24.0
1981-08-30 17:10:34.820 ,6,1,25.,24.0,0.,24.0,1.,24.0,0.,24.0
1981-08-30 17:10:58.820 ,6,0,0.,24.0,0.,24.0,0.,24.0,0.,24.0
1981-08-30 17:11:22.820 ,5,1,0.,24.0,0.,24.0,0.,24.0,0.,24.0
1981-08-30 17:11:46.820 ,5,0,0.,24.0,0.,24.0,0.,24.0,0.,24.0
1981-08-30 17:12:10.820 ,4,1,0.,24.0,0.,24.0,0.,24.0,0.,24.0
1981-08-30 17:12:34.820 ,4,0,0.,24.0,0.,24.0,1.,24.0,0.,24.0
1981-08-30 17:12:58.820 ,3,1,0.,24.0,0.,24.0,1.,24.0,0.,24.0
1981-08-30 17:13:22.820 ,3,0,0.,24.0,0.,24.0,0.,24.0,0.,24.0
1981-08-30 17:13:46.820 ,2,1,0.,24.0,0.,24.0,1.,24.0,0.,24.0
1981-08-30 17:14:10.820 ,2,0,0.,24.0,0.,24.0,0.,24.0,0.,24.0
1981-08-30 17:14:34.820 ,1,1,0.,24.0,0.,24.0,0.,24.0,0.,24.0
1981-08-30 17:14:58.820 ,1,0,0.,24.0,0.,24.0,0.,24.0,0.,24.0
1981-08-30 17:15:22.820 ,0,1,0.,24.0,0.,24.0,0.,24.0,0.,24.0
1981-08-30 17:15:46.820 ,0,0,0.,24.0,0.,24.0,0.,24.0,0.,24.0
1981-08-30 17:16:10.820 ,0,1,0.,24.0,0.,24.0,1.,24.0,0.,24.0
1981-08-30 17:16:34.820 ,0,0,0.,24.0,0.,24.0,0.,24.0,0.,24.0
1981-08-30 17:16:58.820 ,1,1,0.,24.0,0.,24.0,0.,24.0,0.,24.0
1981-08-30 17:17:22.820 ,1,0,0.,24.0,0.,24.0,1.,24.0,0.,24.0
1981-08-30 17:17:46.820 ,2,1,0.,24.0,0.,24.0,0.,24.0,0.,24.0
1981-08-30 17:18:10.820 ,2,0,0.,24.0,0.,24.0,0.,24.0,0.,24.0
1981-08-30 17:18:34.820 ,3,1,0.,24.0,0.,24.0,0.,24.0,0.,24.0
1981-08-30 17:18:58.820 ,4,1,0.,24.0,0.,24.0,0.,24.0,0.,24.0
1981-08-30 17:19:22.820 ,5,1,0.,24.0,0.,24.0,0.,24.0,0.,24.0
1981-08-30 17:19:46.820 ,6,1,0.,24.0,1.,24.0,0.,24.0,0.,24.0
1981-08-30 17:20:10.820 ,7,1,5.,24.0,0.,24.0,0.,24.0,0.,24.0
1981-08-30 17:20:34.820 ,7,1,35.,24.0,0.,24.0,0.,24.0,0.,24.0
1981-08-30 17:20:58.820 ,6,1,23.,24.0,0.,24.0,1.,24.0,0.,24.0
1981-08-30 17:21:22.820 ,5,1,0.,24.0,0.,24.0,0.,24.0,0.,24.0
1981-08-30 17:21:46.820 ,4,1,0.,24.0,0.,24.0,0.,24.0,0.,24.0
1981-08-30 17:22:10.820 ,3,1,0.,24.0,0.,24.0,0.,24.0,0.,24.0
1981-08-30 17:22:34.820 ,2,1,0.,24.0,0.,24.0,1.,24.0,0.,24.0
1981-08-30 17:22:58.820 ,1,1,0.,24.0,1.,24.0,0.,24.0,0.,24.0
1981-08-30 17:23:22.820 ,0,1,0.,24.0,0.,24.0,0.,24.0,0.,24.0
1981-08-30 17:23:46.820 ,0,1,0.,24.0,0.,24.0,0.,24.0,0.,24.0
1981-08-30 17:24:10.820 ,1,1,0.,24.0,0.,24.0,1.,24.0,0.,24.0
1981-08-30 17:24:34.820 ,2,1,0.,24.0,0.,24.0,1.,24.0,0.,24.0
1981-08-30 17:24:58.820 ,3,1,0.,24.0,0.,24.0,2.,24.0,0.,24.0
1981-08-30 17:25:22.820 ,3,0,0.,24.0,0.,24.0,0.,24.0,0.,24.0
1981-08-30 17:25:46.820 ,4,1,1.,24.0,0.,24.0,1.,24.0,0.,24.0
1981-08-30 17:26:10.820 ,4,0,0.,24.0,0.,24.0,0.,24.0,0.,24.0
1981-08-30 17:26:34.820 ,5,1,0.,24.0,0.,24.0,0.,24.0,0.,24.0
1981-08-30 17:26:58.820 ,5,0,0.,24.0,0.,24.0,0.,24.0,0.,24.0
1981-08-30 17:27:22.820 ,6,1,0.,24.0,0.,24.0,0.,24.0,0.,24.0
1981-08-30 17:27:46.820 ,6,0,0.,24.0,0.,24.0,0.,24.0,0.,24.0
1981-08-30 17:28:10.820 ,7,1,12.,24.0,0.,24.0,0.,24.0,0.,24.0
1981-08-30 17:28:34.820 ,7,0,28.,24.0,0.,24.0,0.,24.0,0.,24.0
1981-08-30 17:28:58.820 ,7,1,35.,24.0,0.,24.0,0.,24.0,0.,24.0
1981-08-30 17:29:22.820 ,7,0,24.,24.0,0.,24.0,0.,24.0,0.,24.0
1981-08-30 17:29:46.820 ,6,1,22.,24.0,0.,24.0,1.,24.0,0.,24.0
1981-08-30 17:30:10.820 ,6,0,0.,24.0,0.,24.0,0.,24.0,0.,24.0
1981-08-30 17:30:34.820 ,5,1,0.,24.0,0.,24.0,1.,24.0,0.,24.0
1981-08-30 17:30:58.820 ,5,0,0.,24.0,0.,24.0,0.,24.0,0.,24.0
1981-08-30 17:31:22.820 ,4,1,0.,24.0,0.,24.0,0.,24.0,0.,24.0
1981-08-30 17:31:46.820 ,4,0,0.,24.0,0.,24.0,0.,24.0,0.,24.0
1981-08-30 17:32:10.820 ,3,1,1.,24.0,0.,24.0,1.,24.0,0.,24.0
1981-08-30 17:32:34.820 ,3,0,0.,24.0,0.,24.0,0.,24.0,0.,24.0
1981-08-30 17:32:58.820 ,2,1,0.,24.0,0.,24.0,0.,24.0,0.,24.0
1981-08-30 17:33:22.820 ,2,0,0.,24.0,0.,24.0,1.,24.0,0.,24.0
1981-08-30 17:33:46.820 ,1,1,0.,24.0,0.,24.0,1.,24.0,0.,24.0
1981-08-30 17:34:10.820 ,1,0,0.,24.0,0.,24.0,1.,24.0,0.,24.0
1981-08-30 17:34:34.820 ,0,1,0.,24.0,0.,24.0,0.,24.0,0.,24.0
1981-08-30 17:34:58.820 ,0,0,0.,24.0,0.,24.0,0.,24.0,0.,24.0
1981-08-30 17:35:22.820 ,0,1,0.,24.0,0.,24.0,2.,24.0,0.,24.0
1981-08-30 17:35:46.820 ,0,0,0.,24.0,1.,24.0,1.,24.0,0.,24.0
1981-08-30 17:36:10.820 ,1,1,0.,24.0,0.,24.0,0.,24.0,0.,24.0
1981-08-30 17:36:34.820 ,1,0,0.,24.0,0.,24.0,0.,24.0,0.,24.0